Theta_e
302 303 302 302 302 302 302 303 303 303 304 303 301 303 305 306 302 301 309 313 309 311 314 316 318 319 319 319 320 321 322 323 324 325 324 324 325 326 327 328 329 329 330 331 333 335 339 341 341 342 342 344 348 349 351 354 354 353 353 355 354 354 356 354 353 355 354 355 352 352 356 360 358 355 353 353 355 355 353 348 346 347 345 343 348 349 352
300 301 302 303 302 301 302 302 302 302 302 302 303 303 305 306 306 311 311 312 312 315 316 318 319 320 320 320 321 322 322 321 322 323 323 324 324 324 325 326 327 328 328 329 330 332 333 334 337 339 339 341 344 349 351 354 354 351 355 354 352 352 351 352 354 356 359 353 352 354 354 351 349 348 349 357 349 352 355 353 354 354 352 351 347 350 351
297 300 301 301 301 300 299 301 302 301 302 302 304 304 305 306 306 311 311 312 310 317 319 317 320 321 321 321 320 320 321 321 321 321 322 323 324 324 325 326 326 327 328 327 328 330 330 331 333 335 341 342 343 345 347 347 349 351 351 350 353 352 354 352 353 355 357 354 354 353 354 355 354 355 355 353 349 356 360 361 360 370 363 353 348 345 349
294 298 299 299 300 300 299 299 300 300 300 299 301 301 305 304 304 309 311 309 310 314 324 319 319 319 319 318 319 319 320 320 321 320 321 321 322 322 323 324 325 325 327 327 327 327 327 327 329 332 338 338 339 341 343 346 351 352 351 349 349 350 350 351 352 352 355 357 356 356 357 355 355 355 356 353 351 352 355 358 364 360 354 357 358 351 346
293 297 299 298 298 297 295 296 299 301 301 302 303 304 306 306 306 305 306 308 314 316 318 316 316 318 318 318 318 318 320 321 320 320 320 321 321 321 322 322 323 323 324 326 327 326 327 328 328 329 332 335 341 342 343 347 349 348 347 346 346 348 347 347 348 349 351 353 355 356 356 357 357 354 353 355 353 354 354 357 359 363 359 356 357 356 352
293 296 298 298 294 288 290 301 304 303 300 301 300 301 304 308 310 309 314 314 317 317 316 315 315 316 316 318 320 321 320 319 320 320 320 320 321 321 321 322 322 322 323 324 325 326 327 328 329 330 333 331 333 337 340 345 345 344 344 344 344 345 347 346 346 346 346 347 349 354 356 356 357 358 355 353 355 357 358 358 358 355 357 359 358 361 358
293 296 296 292 286 288 302 304 305 305 304 304 302 304 305 307 310 312 313 315 315 316 316 317 317 319 318 319 319 318 320 320 319 320 320 320 319 320 320 320 320 322 323 324 325 325 324 325 328 329 329 331 331 333 336 336 338 340 339 339 341 343 344 346 346 345 343 341 343 346 352 357 357 356 356 356 355 355 356 357 357 357 357 354 356 359 358
298 295 293 285 288 300 303 303 304 306 305 305 304 302 305 308 309 311 312 313 315 316 316 317 319 318 318 317 318 319 319 319 319 318 318 319 318 318 319 320 320 320 320 323 324 327 328 325 324 326 326 331 331 330 333 337 337 336 337 337 337 339 338 340 344 346 344 342 342 346 349 351 354 357 357 357 356 357 357 356 358 360 359 356 353 354 356
291 293 293 292 300 299 300 299 301 302 300 301 301 297 303 307 310 311 312 314 314 315 315 316 317 317 317 314 315 317 318 317 317 318 318 318 318 318 319 319 320 321 321 321 323 328 328 324 328 329 325 328 330 329 329 332 334 334 336 337 337 338 337 339 341 344 346 343 343 344 346 349 350 353 355 357 358 359 356 355 354 355 356 355 357 355 357
297 293 292 292 291 288 295 303 305 306 306 306 306 302 300 308 308 312 313 313 313 314 315 314 315 315 312 309 312 316 317 317 316 317 317 318 318 317 318 319 320 320 320 320 322 321 322 322 322 329 332 331 330 331 329 331 336 337 336 335 336 338 337 339 340 343 345 347 345 344 345 346 349 352 354 356 358 360 355 354 354 354 356 358 357 356 354
297 294 291 290 287 293 302 303 305 307 308 308 309 300 296 306 310 312 313 312 314 313 312 312 314 310 305 307 312 315 317 316 317 316 316 316 317 317 317 317 317 317 319 320 320 321 320 320 321 323 326 326 325 327 328 326 331 332 332 332 332 333 332 334 338 340 339 343 345 344 345 345 346 349 351 353 355 356 358 357 356 357 358 357 357 357 357
295 295 291 289 295 294 303 305 305 305 307 305 302 289 291 307 310 310 311 311 312 315 312 312 311 309 305 307 312 316 315 315 316 316 315 315 315 316 316 317 317 318 321 319 318 317 317 320 321 321 322 323 325 325 325 324 325 324 328 331 332 335 335 334 335 337 338 343 343 343 345 345 347 349 352 353 354 355 357 358 357 356 356 355 354 355 355
293 294 293 295 298 305 307 305 305 305 303 301 292 287 300 310 310 310 310 311 312 312 312 312 309 312 313 314 314 315 314 313 313 314 315 315 315 315 315 316 320 316 317 316 316 316 320 322 319 320 321 321 322 324 326 326 325 325 328 331 333 335 336 335 334 334 334 337 339 341 342 346 345 347 348 350 354 354 354 355 354 353 354 355 354 356 357
293 294 291 292 299 306 308 308 306 306 301 290 290 305 312 311 309 310 311 311 312 313 312 311 311 312 312 313 312 312 312 311 312 312 313 313 314 315 317 318 317 316 315 317 317 316 318 318 319 319 319 321 324 324 323 323 325 329 332 332 333 334 334 335 335 334 333 339 339 337 343 347 347 347 347 348 348 353 356 356 353 352 352 353 353 353 354
296 295 292 291 287 303 310 308 305 305 297 303 309 311 311 311 310 311 311 312 311 312 311 311 311 311 310 310 310 309 310 310 310 311 312 313 313 313 314 315 316 316 316 315 316 317 317 318 319 319 318 320 321 323 323 325 326 328 330 332 333 334 335 335 337 336 337 336 339 334 338 342 344 344 346 346 348 351 350 353 354 351 350 350 352 350 348
292 292 289 290 302 307 310 307 301 305 310 312 313 311 308 310 310 309 309 310 310 309 309 308 308 309 308 308 309 310 310 310 310 311 313 313 313 312 313 314 315 316 316 316 316 317 317 319 320 321 321 321 322 321 323 328 327 327 328 328 332 331 332 334 333 332 331 332 334 335 336 340 344 345 345 346 347 349 350 351 352 353 352 352 349 347 346
298 296 299 303 308 310 310 310 310 311 313 315 313 313 311 309 308 311 309 309 309 309 309 308 308 307 308 308 309 308 308 309 309 310 311 312 312 312 313 313 317 316 315 314 314 316 317 319 320 322 321 320 321 321 325 327 328 326 326 326 328 328 329 329 330 329 330 332 332 332 334 336 338 339 341 344 344 347 349 349 351 352 355 351 347 346 348
306 307 307 309 309 310 310 310 313 312 312 313 312 312 310 310 311 310 309 310 310 310 310 308 307 307 308 309 309 309 309 309 310 311 312 313 314 314 314 314 314 314 314 314 314 315 316 318 318 322 319 319 320 322 321 325 325 324 325 326 326 326 325 325 325 326 328 327 327 331 333 332 332 334 335 338 343 349 349 348 351 352 353 348 346 345 345
297 293 306 305 307 308 308 308 312 314 313 312 310 310 308 310 310 311 311 311 311 311 310 308 308 309 310 308 308 310 310 309 310 311 312 313 313 313 313 313 315 314 314 313 314 315 314 317 317 318 318 318 319 323 323 320 320 324 323 324 325 325 325 322 325 326 327 325 326 326 327 326 328 331 336 336 336 343 345 340 342 348 349 348 347 348 347
297 298 305 306 309 309 309 308 309 310 311 311 310 311 311 312 312 312 311 310 309 309 308 309 308 307 308 308 308 308 308 309 310 311 311 312 312 314 314 314 315 314 313 313 313 314 315 316 317 318 318 318 319 319 320 320 321 322 323 323 321 322 322 322 323 322 322 327 328 325 324 324 324 328 331 331 331 338 339 337 337 338 339 344 343 342 340
303 304 305 307 309 308 308 309 310 311 311 311 311 311 312 311 312 312 312 311 309 308 308 310 309 308 308 308 308 307 308 310 310 311 311 312 313 313 313 313 314 313 313 313 313 313 314 315 316 317 317 318 319 320 320 321 323 322 321 322 323 322 322 322 322 325 322 322 323 323 324 327 330 336 333 331 337 338 335 337 335 332 333 333 335 335 337
299 300 303 307 301 299 305 308 309 310 312 312 311 311 311 311 311 311 310 310 311 310 310 310 309 307 308 309 310 308 308 309 310 311 312 312 312 312 312 313 313 313 314 313 313 313 314 315 316 316 316 318 319 318 320 321 322 321 321 321 322 322 322 323 323 323 323 322 323 324 323 323 325 328 333 322 326 332 329 333 327 320 321 333 336 338 336
298 308 308 310 308 307 308 309 311 312 312 311 310 310 310 311 312 313 311 310 310 310 310 311 310 310 310 310 310 309 309 310 311 311 311 311 311 311 311 311 311 312 312 313 313 313 314 315 315 315 316 317 319 319 321 321 321 321 321 321 320 320 323 323 324 324 323 322 324 327 327 325 328 328 329 330 312 310 316 323 320 313 308 308 310 314 330
308 310 310 311 309 306 308 311 313 312 313 313 311 312 312 311 312 312 312 312 310 312 311 312 311 310 309 309 310 310 310 310 311 311 311 311 311 311 310 310 311 311 311 312 312 312 313 314 314 315 314 315 318 317 319 320 321 321 321 320 319 318 319 320 324 326 325 326 326 327 328 329 328 328 327 328 332 318 307 309 310 307 305 305 305 306 307
306 312 312 312 311 311 312 313 313 313 313 314 311 312 312 312 313 312 312 312 312 312 311 311 312 311 310 310 309 309 309 309 310 311 311 311 310 310 310 310 310 311 311 311 312 313 313 313 313 313 313 314 315 316 318 318 319 318 320 319 318 319 320 322 322 324 323 326 327 327 326 327 328 328 326 325 324 325 333 309 302 304 305 304 302 302 302
312 311 311 312 312 311 312 312 312 313 313 314 313 312 315 314 313 313 313 314 313 312 312 311 311 313 312 310 309 309 309 309 310 310 309 309 309 310 310 309 310 311 311 311 311 311 311 312 312 312 312 313 314 315 315 316 317 318 318 318 319 319 319 321 322 323 324 325 325 325 326 326 325 324 324 325 324 325 326 327 331 323 308 301 301 303 302
313 313 311 309 308 309 311 309 307 311 312 312 312 313 314 313 314 313 314 315 314 313 312 312 313 313 312 311 310 309 308 309 310 310 309 309 309 309 310 311 310 310 310 310 310 311 312 313 312 312 312 313 314 315 315 315 317 317 317 318 317 319 321 321 320 321 322 323 322 323 324 325 325 324 324 326 327 326 326 325 326 329 328 333 318 304 317
312 313 313 308 306 307 309 312 312 313 312 312 312 313 315 313 312 311 311 312 313 312 312 313 311 311 311 311 309 308 308 308 308 308 309 308 309 310 311 311 311 310 310 310 310 311 311 311 311 311 311 313 314 315 315 315 316 316 317 317 316 317 317 318 318 319 319 321 323 323 324 324 326 324 325 325 324 325 324 326 326 326 327 330 333 323 309
311 311 311 312 311 311 313 312 313 311 311 313 313 312 312 310 310 309 309 310 312 313 311 312 313 313 311 310 309 308 308 307 307 308 309 310 310 309 310 310 309 309 309 309 310 310 310 310 310 309 310 313 316 318 318 317 316 316 315 315 315 316 315 317 319 319 320 322 323 323 323 322 323 324 324 324 324 323 324 324 325 325 325 328 331 333 329
309 310 311 312 312 312 311 310 310 311 311 312 312 312 311 310 309 309 309 309 310 309 310 311 312 311 310 309 310 309 308 307 307 308 308 308 309 309 309 309 308 308 308 308 309 309 309 309 309 308 310 312 314 316 318 319 317 317 317 317 315 315 316 318 319 319 319 319 318 320 321 322 324 324 323 323 323 323 322 322 323 323 324 327 327 329 329
310 311 310 310 310 310 310 309 310 311 313 313 313 312 312 312 311 309 310 310 310 310 311 310 311 311 308 308 309 309 310 308 308 308 308 308 309 309 309 309 306 305 305 306 307 308 308 309 309 310 311 312 313 314 317 317 317 317 317 315 315 316 315 315 316 317 316 317 317 317 318 318 319 321 322 321 322 322 323 323 324 323 324 324 325 326 331
308 308 308 309 309 310 309 309 309 310 310 312 311 310 310 310 309 311 310 311 310 310 310 310 310 309 308 310 310 309 308 308 307 307 307 307 307 308 309 308 307 307 306 306 306 307 308 309 308 310 310 311 311 312 313 314 316 316 316 317 315 315 315 315 316 317 318 318 318 318 318 317 318 319 320 320 319 320 320 321 321 323 324 326 327 330 333
306 305 306 307 308 307 307 308 308 308 309 309 311 312 312 311 310 311 310 311 312 308 309 310 310 308 309 309 309 307 307 307 307 307 306 306 307 308 308 307 307 306 306 306 306 307 307 308 308 308 309 309 310 311 312 313 314 315 316 317 317 317 318 316 316 316 317 317 317 318 318 318 318 318 318 319 319 320 319 319 320 321 323 324 326 328 323
306 306 306 307 307 306 307 307 309 309 309 311 312 311 310 310 309 308 309 309 308 308 309 309 309 309 308 307 307 306 306 305 304 304 305 306 306 306 306 306 306 306 306 306 306 307 308 308 308 308 308 308 309 309 310 312 313 314 315 315 316 316 316 317 317 317 316 316 317 319 320 320 320 319 319 319 320 320 321 321 322 322 322 323 325 326 314
309 309 309 308 309 310 311 309 309 311 310 308 309 310 311 310 309 308 308 307 307 307 308 309 309 309 308 307 306 305 305 304 304 304 304 304 304 305 305 305 305 305 305 306 307 306 307 306 306 307 307 307 307 308 309 309 310 311 312 312 313 315 316 317 317 316 316 316 317 317 318 318 318 320 320 320 319 319 319 320 320 320 321 322 323 324 323
308 308 308 309 309 310 310 311 311 310 310 310 310 310 308 308 307 305 303 304 307 307 308 308 308 307 306 305 305 304 304 304 303 303 303 303 303 303 303 303 304 303 303 304 306 306 305 305 307 308 306 306 306 307 308 309 309 309 310 310 311 312 313 314 315 316 317 317 316 317 317 318 319 319 319 319 319 320 320 321 322 322 322 322 322 322 322
307 307 308 308 309 309 311 311 311 310 309 309 308 307 306 306 307 308 307 307 309 308 308 307 306 305 304 305 305 305 304 304 303 302 302 303 302 302 303 302 303 302 302 301 303 304 305 305 306 307 305 304 305 305 308 310 308 308 308 308 308 309 310 311 312 313 314 316 317 318 318 317 317 317 318 318 318 318 319 319 320 321 320 320 321 320 319
306 306 307 308 309 308 309 309 309 310 310 308 308 309 309 308 309 308 308 308 307 307 307 306 305 305 305 305 304 303 302 303 302 302 302 302 302 301 301 302 301 302 300 300 303 304 304 304 306 305 302 303 304 305 306 309 310 307 307 306 307 308 308 309 310 311 312 313 315 315 315 315 315 315 316 316 317 318 319 319 319 319 319 318 317 317 316
304 306 307 308 309 308 308 309 309 309 309 307 306 307 309 308 308 308 307 307 307 308 306 306 305 304 303 302 302 302 302 302 302 302 301 301 302 301 301 301 302 302 302 303 303 302 303 303 303 301 302 302 302 303 305 307 308 304 304 304 305 305 306 307 307 309 310 311 313 313 314 314 314 314 315 316 317 318 318 318 318 317 316 315 313 313 312
303 304 305 306 306 308 308 308 308 308 308 308 307 307 308 308 307 306 306 306 307 307 306 305 303 302 301 301 301 301 302 302 302 302 302 301 302 301 301 302 303 303 303 303 303 302 302 303 302 300 300 301 301 301 302 303 304 303 302 302 302 303 304 305 306 306 307 308 310 312 312 313 313 314 315 316 316 316 316 316 316 315 314 314 313 311 311
303 303 304 304 305 307 307 307 307 307 308 308 308 307 307 307 308 305 305 305 305 305 304 303 302 301 301 301 302 302 302 303 303 302 302 301 300 299 299 298 301 302 302 302 302 302 302 301 301 299 299 300 300 302 300 302 301 300 300 301 301 302 302 303 304 305 306 306 308 309 310 311 312 312 313 313 313 314 314 313 313 312 312 311 310 309 309
303 304 304 303 304 307 307 306 305 307 308 309 308 307 307 307 306 305 304 304 304 304 303 304 303 302 302 302 303 302 302 302 302 302 302 300 299 299 298 299 302 302 302 302 302 301 300 300 300 301 299 299 300 302 302 301 299 299 299 300 301 302 302 303 304 305 306 307 308 308 310 310 310 310 311 311 311 312 312 312 311 310 309 309 308 306 305
304 303 303 303 304 307 307 307 306 306 305 306 306 306 306 306 306 305 304 304 303 303 302 303 303 303 303 302 302 301 301 302 301 301 301 301 302 301 300 300 301 301 302 302 301 300 299 299 299 299 301 300 299 301 301 298 298 299 299 300 301 301 302 303 303 304 305 305 306 307 308 308 308 308 308 308 308 309 309 308 308 307 307 306 306 305 305
303 303 304 304 304 304 308 308 306 305 305 305 306 306 306 305 305 304 303 303 302 302 303 303 302 302 302 302 301 300 301 300 300 300 299 299 300 301 301 300 301 301 301 301 300 299 298 299 298 299 301 301 300 300 299 298 298 298 299 299 299 300 301 301 302 302 303 304 305 306 306 306 306 305 305 306 306 306 307 306 305 305 305 304 304 303 303
302 302 303 302 302 304 307 305 304 304 306 306 305 305 305 304 304 304 303 303 302 302 302 302 302 302 302 302 302 301 301 301 301 300 297 296 296 297 300 301 301 300 300 301 300 299 298 298 299 300 299 300 300 299 297 296 296 297 297 298 298 299 299 300 301 302 302 302 303 303 304 304 304 304 303 303 304 304 304 304 304 304 303 302 302 301 301
302 302 302 301 303 307 307 306 305 305 305 304 303 303 304 304 303 303 304 303 303 303 303 303 302 302 302 302 302 302 301 301 301 301 301 299 297 298 301 300 301 300 300 300 300 298 298 300 300 299 299 299 299 296 296 296 296 296 296 296 297 298 298 299 299 299 300 301 301 301 302 302 302 302 302 302 302 302 302 302 302 302 301 301 301 301 301
303 303 303 302 303 306 307 307 306 306 305 303 301 301 303 303 303 303 303 304 304 303 303 303 304 303 304 303 302 301 299 299 300 301 301 301 301 300 300 300 300 300 300 299 299 299 299 298 299 299 298 299 298 295 295 294 294 295 295 294 295 296 297 297 298 298 298 299 300 301 302 302 301 301 301 301 301 301 302 301 301 300 300 301 300 301 300
302 303 304 305 304 304 304 304 304 304 302 301 302 302 303 304 304 304 304 304 304 304 303 304 303 303 304 303 303 303 301 300 297 298 300 300 300 300 300 300 301 300 300 300 299 299 299 299 299 299 298 298 296 295 294 294 294 294 294 294 294 294 294 295 296 297 297 298 299 298 299 300 300 300 300 300 300 300 300 300 301 300 300 299 299 299 299
303 305 306 306 304 304 302 303 303 303 301 303 303 302 304 304 304 304 303 303 303 302 302 302 303 303 303 304 303 302 303 303 301 298 301 301 300 300 300 301 301 300 300 299 299 299 299 298 298 298 298 297 295 295 294 294 294 294 294 293 294 294 294 294 294 295 296 297 297 298 298 298 298 299 299 299 299 299 299 298 298 298 298 299 298 299 298
305 305 306 306 304 304 303 303 302 302 303 303 303 303 304 303 301 301 302 301 301 302 301 301 302 303 303 303 303 303 303 303 303 302 302 302 302 302 302 302 301 300 300 299 299 298 299 299 298 298 297 296 295 295 295 294 294 293 293 294 293 293 293 294 294 294 295 296 296 297 297 297 297 298 298 298 298 298 298 297 297 297 297 298 298 298 298
303 304 304 305 305 304 305 306 305 305 303 303 303 304 304 302 301 302 302 302 302 301 300 301 302 302 302 302 302 303 303 303 302 301 302 301 303 302 301 301 301 300 300 299 299 298 298 297 297 297 297 296 295 295 295 294 293 293 293 293 293 292 293 292 293 292 292 294 294 295 295 295 296 296 296 296 297 296 296 297 297 297 296 296 297 297 297
304 304 304 304 306 306 304 305 306 306 305 305 304 303 302 302 301 301 301 301 302 301 300 300 300 302 302 302 302 302 303 302 303 302 302 302 301 301 302 301 301 300 299 299 298 299 298 298 298 298 297 296 297 296 295 295 294 294 294 294 293 293 293 292 291 292 291 292 292 292 293 294 293 292 293 294 295 295 295 295 295 295 295 296 296 297 297
Wind_Speed
6 7 7 7 9 9 14 21 12 11 10 9 10 11 15 4 5 4 8 12 12 13 12 10 12 11 12 11 11 10 10 11 11 11 11 11 12 12 14 14 13 14 14 12 11 11 10 9 8 7 9 7 3 3 4 5 6 7 8 6 2 4 2 3 6 6 3 6 8 13 12 13 12 8 5 6 5 5 8 10 11 10 10 10 11 11 10
1 6 7 8 7 4 11 8 3 4 4 8 10 13 14 5 2 12 11 6 9 6 11 14 12 12 13 11 10 11 10 11 10 10 10 11 11 12 13 13 14 13 13 13 12 11 11 12 9 7 7 8 6 5 5 4 6 10 7 4 2 1 1 3 4 4 3 5 2 4 7 6 10 15 19 16 8 6 4 6 7 7 7 6 7 11 11
6 5 4 7 9 5 5 4 2 1 7 8 6 6 4 3 4 11 13 10 5 6 7 11 12 11 11 12 12 10 7 10 11 10 9 10 10 12 12 12 13 13 13 13 12 11 12 12 11 8 7 4 2 6 7 10 10 10 9 8 8 6 5 7 6 3 3 4 3 4 3 4 7 4 7 7 14 17 8 4 5 3 4 7 8 7 11
7 8 5 8 8 8 8 10 5 7 8 8 7 7 2 3 3 8 11 9 5 9 5 11 12 12 13 12 12 10 10 9 8 10 10 9 10 11 12 12 12 13 13 13 13 13 13 12 11 10 6 7 8 9 10 9 8 9 9 9 8 7 8 8 8 8 7 5 5 3 2 2 3 4 6 8 8 9 11 10 6 5 7 6 5 7 8
6 9 6 9 8 7 10 10 9 6 9 7 7 7 5 4 4 12 11 8 10 13 13 12 12 14 13 11 8 9 9 9 9 7 8 10 10 11 11 11 12 12 12 12 12 12 11 11 9 10 8 7 7 7 8 7 8 9 9 9 8 8 8 8 7 7 7 6 4 3 3 2 3 4 4 7 5 5 5 7 7 4 6 7 7 7 8
6 9 7 3 4 8 8 4 11 15 12 10 9 9 4 3 8 2 7 12 13 14 13 13 12 12 11 11 11 10 7 6 6 6 7 8 9 10 11 11 11 11 10 10 10 11 11 10 10 9 8 9 8 8 8 8 8 8 8 8 9 9 8 8 7 6 5 7 8 8 6 3 2 1 3 3 4 6 5 4 4 5 9 7 7 7 8
7 5 3 4 7 7 5 6 10 4 4 6 10 4 6 4 1 8 14 12 10 6 6 8 12 11 11 9 10 9 7 10 7 5 5 6 8 9 10 10 10 10 9 9 9 10 11 10 9 9 9 9 8 9 9 9 9 9 10 10 9 9 8 7 7 7 6 7 6 7 7 6 4 3 2 3 4 4 4 4 4 3 2 4 6 8 8
7 5 6 4 6 3 2 5 6 7 4 6 5 3 5 4 3 6 10 11 12 7 8 7 14 14 12 11 9 9 7 2 6 8 5 5 7 8 8 10 9 9 9 8 8 7 8 9 9 9 9 9 9 9 9 8 8 9 9 9 9 8 8 8 7 6 6 7 6 5 6 5 6 5 4 4 4 3 4 5 5 4 3 3 5 4 4
7 7 7 6 4 6 6 3 4 2 3 4 5 5 7 3 3 5 6 9 11 10 11 9 7 8 7 9 8 9 6 5 7 5 7 5 6 7 7 8 10 9 9 8 8 6 7 8 6 6 8 9 9 9 9 9 9 9 8 8 7 7 7 6 5 4 4 3 3 5 5 5 5 6 6 5 5 4 4 5 7 7 6 5 6 7 8
6 7 7 6 5 8 8 6 6 1 2 2 1 4 3 9 6 6 11 8 13 15 13 13 11 8 7 7 6 7 11 9 7 4 6 6 5 6 6 6 9 9 8 8 7 7 8 9 8 4 5 6 8 7 8 7 7 6 7 7 7 7 6 6 5 5 3 2 3 2 2 3 4 5 5 5 5 4 5 6 6 6 6 6 6 5 7
4 6 8 5 5 2 5 9 9 8 6 4 5 3 6 7 5 6 9 9 8 8 10 9 11 8 6 5 8 8 8 5 4 4 5 5 5 5 5 8 8 8 7 7 7 7 8 9 9 8 7 8 9 8 8 8 7 7 8 8 8 8 8 8 7 5 5 3 1 2 2 3 3 5 5 5 4 4 5 5 6 6 6 7 8 7 8
5 5 6 8 2 2 5 7 6 3 5 4 4 6 7 11 7 6 6 11 14 12 4 5 4 1 4 5 6 6 7 5 3 4 4 4 5 6 6 9 8 7 6 6 7 8 8 9 9 9 8 8 8 8 8 8 9 9 8 7 7 7 7 7 7 6 6 5 5 5 4 4 4 4 4 5 5 5 5 4 5 7 8 8 10 9 8
7 8 6 6 3 5 7 7 6 5 3 3 4 4 6 1 5 4 6 2 4 7 8 2 3 4 10 7 7 1 4 2 5 4 3 4 5 5 6 8 7 6 6 6 7 8 7 7 8 9 9 9 9 8 7 7 8 8 7 7 6 6 6 7 7 7 7 6 6 6 5 3 4 5 5 5 5 5 5 4 5 5 5 6 8 9 6
8 6 7 6 6 3 6 5 5 6 3 5 3 4 1 5 7 4 3 6 8 8 7 4 3 3 7 8 4 2 2 4 3 3 5 5 6 6 7 6 6 6 6 7 7 8 8 9 10 10 9 8 7 8 8 8 9 7 6 6 5 5 5 6 6 7 7 6 6 6 5 4 3 4 4 5 5 5 4 4 4 4 5 4 6 8 9
7 6 6 5 4 5 3 7 4 3 5 3 5 5 6 6 7 7 7 6 6 4 5 3 4 4 5 5 4 4 3 3 5 5 6 6 6 7 7 7 8 8 7 7 7 8 8 10 9 9 9 8 7 6 7 8 8 7 7 6 5 5 5 5 4 6 6 6 6 6 6 6 6 6 5 5 5 5 5 5 5 6 4 4 6 7 7
5 6 6 1 5 6 6 5 2 2 5 6 6 6 6 6 6 5 5 6 5 3 4 3 3 3 4 1 1 2 2 3 3 4 6 6 6 6 6 7 9 9 8 8 8 8 8 7 7 7 8 7 6 7 7 6 8 8 7 7 6 6 5 5 5 7 7 7 6 6 7 6 6 6 6 5 6 5 5 5 5 5 3 5 7 7 6
5 4 4 5 5 5 4 1 7 8 8 6 5 1 5 4 5 4 4 7 6 4 3 2 3 0 0 2 2 2 2 2 3 5 5 5 6 7 7 8 9 9 8 9 9 8 7 8 7 7 7 8 9 9 8 7 7 7 7 7 7 7 6 6 7 7 7 5 6 6 7 6 6 6 7 6 6 5 5 5 5 5 4 5 6 4 5
6 7 4 6 3 5 5 4 7 8 7 7 4 5 5 3 4 5 2 7 6 7 5 3 3 2 1 1 0 2 1 3 4 3 3 5 6 7 8 8 9 9 9 9 9 9 9 9 9 7 8 8 9 8 9 8 9 8 8 8 8 8 9 9 9 9 8 9 8 7 7 7 8 8 8 7 6 4 4 4 4 4 4 5 7 6 6
2 3 5 8 7 6 6 5 7 5 7 6 4 4 2 3 5 4 5 4 5 6 7 4 2 3 3 4 2 1 0 2 2 4 5 5 6 7 8 8 8 8 9 9 9 10 10 10 9 9 10 9 9 8 8 9 10 8 9 9 8 8 7 9 8 8 9 8 8 8 8 9 9 7 5 6 6 5 4 5 4 4 3 1 3 6 7
7 5 3 4 2 4 6 6 8 7 7 6 4 2 2 3 4 4 6 5 4 4 5 5 5 4 3 2 1 2 2 2 3 3 4 5 6 6 6 7 7 8 8 9 10 10 9 9 9 9 10 10 10 10 10 10 9 9 9 9 10 10 11 10 9 9 8 11 10 8 8 8 8 7 6 7 7 5 6 6 6 6 6 5 4 5 6
6 9 9 5 4 4 3 3 4 6 7 6 6 4 5 4 5 5 5 4 4 5 3 6 5 3 1 2 2 4 3 3 3 4 5 5 5 5 6 7 6 7 8 9 10 10 10 10 10 9 10 10 10 11 10 9 9 9 9 10 10 11 11 10 9 8 9 9 9 9 8 7 6 4 5 6 6 5 6 5 6 7 6 6 7 7 6
7 2 5 11 4 4 2 6 9 8 7 9 9 7 7 9 9 8 6 5 3 2 3 5 4 3 2 1 2 4 5 4 4 5 5 6 6 6 6 6 7 7 8 8 9 10 9 9 9 10 10 9 9 10 10 9 8 9 10 9 10 10 9 9 9 9 9 9 8 8 9 9 9 8 8 8 8 8 10 8 10 9 8 8 7 6 8
3 4 4 5 4 4 3 3 7 7 7 8 9 10 10 10 10 10 9 9 10 7 4 3 1 2 3 2 1 4 4 3 3 4 6 7 7 7 8 8 7 7 8 8 9 10 9 9 10 10 10 10 9 9 9 8 9 9 8 8 9 9 9 9 8 9 10 10 9 7 7 8 8 9 9 8 12 16 14 13 13 14 13 14 13 12 10
7 5 2 2 3 3 4 7 6 8 6 6 7 7 7 9 10 10 9 8 6 5 8 9 13 11 7 1 4 3 3 4 5 6 6 6 8 9 8 8 8 8 8 8 9 9 9 9 10 10 11 12 10 11 11 10 9 10 9 9 9 9 10 10 10 9 8 9 9 8 7 7 8 8 9 10 8 8 14 15 15 16 15 15 15 15 16
7 5 5 3 4 5 5 7 7 7 6 6 7 8 9 9 8 8 8 9 10 9 7 6 7 3 2 5 7 4 3 5 4 5 5 6 7 8 8 9 9 9 9 9 9 9 10 11 11 12 12 12 12 13 12 12 11 11 10 10 10 9 9 9 9 10 10 9 8 8 9 8 7 7 9 10 11 10 7 9 14 15 16 16 15 15 15
8 8 8 8 8 9 8 8 10 9 9 8 8 10 10 10 8 7 7 8 8 8 7 6 4 7 3 3 1 3 7 6 5 5 6 6 7 7 8 9 10 9 9 10 10 11 12 13 13 13 12 12 13 12 13 13 12 12 12 11 10 9 9 10 10 10 10 9 9 9 9 9 9 9 9 10 10 10 11 10 8 6 7 11 14 16 16
6 6 7 8 9 9 8 10 9 9 11 12 10 6 13 13 11 9 6 6 7 8 8 5 5 6 5 7 3 4 6 6 5 5 6 7 7 7 7 8 9 11 12 11 11 11 13 12 12 12 13 14 14 15 15 13 12 12 11 12 12 14 20 16 10 10 10 10 10 9 9 9 9 9 9 9 9 9 9 10 9 9 8 7 10 15 13
6 5 5 8 8 8 7 7 7 6 8 10 11 9 12 12 10 9 8 7 7 7 6 6 8 8 5 4 5 5 6 7 5 5 6 7 7 7 8 9 10 11 11 11 10 11 12 12 12 13 13 14 15 14 14 15 13 12 12 11 12 11 11 13 12 10 10 10 9 10 10 10 9 8 8 9 10 10 8 8 10 10 9 8 7 5 11
5 6 6 6 7 9 10 10 9 10 10 9 10 11 11 11 12 13 12 9 6 6 7 9 9 6 4 3 3 7 9 5 6 6 5 5 6 8 8 9 10 10 10 11 11 10 11 11 12 13 13 14 15 15 14 13 11 11 11 12 12 12 12 11 10 10 9 9 9 9 10 10 9 8 8 9 10 10 10 9 9 9 10 9 8 8 7
4 7 7 7 8 9 10 11 10 10 11 10 10 12 14 13 12 11 12 12 10 9 9 9 8 7 8 8 6 4 6 4 4 6 6 6 7 7 8 8 9 9 9 9 10 11 11 12 12 13 12 13 15 14 13 12 11 11 11 11 11 10 10 9 10 11 11 10 11 13 12 11 10 10 10 10 10 10 10 11 10 10 11 10 8 9 8
6 6 8 8 9 10 10 10 11 12 11 9 7 7 8 9 11 13 10 9 9 9 9 9 8 8 3 3 4 5 6 5 4 5 6 7 7 6 7 7 8 8 9 10 10 11 11 11 11 11 11 12 14 14 13 11 10 11 10 10 10 11 12 15 13 12 12 12 12 12 12 12 11 11 10 10 9 8 8 9 9 9 10 10 10 9 7
8 9 10 9 9 9 10 9 8 9 10 9 10 11 9 8 10 9 3 4 7 10 10 10 7 4 4 5 6 5 4 4 4 6 6 6 7 7 7 7 7 8 9 10 10 11 11 11 11 11 11 12 13 14 13 13 11 10 10 11 11 10 10 12 10 11 10 13 13 13 12 11 11 11 11 10 9 9 10 10 10 10 10 9 8 7 3
8 8 8 6 8 9 9 8 7 6 7 11 9 6 2 6 6 4 6 10 5 4 8 8 3 5 4 4 3 3 2 4 5 6 6 6 6 6 7 6 6 7 8 8 10 10 10 10 10 10 11 13 14 14 14 13 11 10 10 10 10 10 11 11 11 10 12 13 12 11 11 11 11 10 10 9 10 11 12 13 12 12 10 10 8 6 5
6 7 8 8 9 9 10 9 5 4 5 5 3 3 3 5 4 3 2 6 2 4 7 3 5 6 6 3 1 2 3 4 5 5 6 6 7 7 7 7 7 8 8 9 10 8 8 8 8 9 11 13 14 14 14 14 11 10 9 10 10 10 10 9 11 12 12 12 12 13 12 11 10 11 11 10 10 10 10 10 10 10 10 9 7 5 6
8 8 9 9 10 8 7 8 8 6 6 7 5 4 5 7 7 6 5 4 4 4 5 5 4 4 4 4 3 2 3 3 4 5 6 6 7 7 7 7 7 8 9 8 7 7 7 8 9 9 11 13 14 14 13 13 12 11 11 11 11 10 10 10 10 10 10 12 13 12 11 11 11 10 10 11 11 10 11 10 11 10 10 10 8 8 5
9 7 8 8 10 11 9 7 7 7 5 5 6 6 7 5 8 7 6 4 3 4 5 5 3 5 5 4 1 4 3 4 4 5 5 6 7 7 7 8 8 8 9 8 7 7 7 8 12 17 13 12 13 13 13 12 11 11 11 11 11 11 11 10 10 9 9 9 10 11 12 12 12 11 11 11 10 10 11 12 11 10 10 9 9 7 5
9 7 6 5 5 8 5 3 1 0 1 3 8 9 7 8 8 8 10 9 7 6 2 3 3 4 2 1 1 2 2 3 3 3 4 5 6 6 7 7 8 7 7 6 7 8 9 8 13 19 14 11 12 12 13 18 11 11 11 11 11 11 11 11 10 10 10 9 8 8 9 11 10 10 10 10 12 12 11 12 11 11 9 9 9 6 5
10 9 7 6 2 3 5 1 1 4 5 7 6 6 6 7 6 7 7 6 6 5 5 4 3 2 1 1 1 2 2 3 2 4 4 4 5 6 7 6 6 6 6 7 8 8 8 12 17 13 11 10 10 11 13 18 19 13 11 11 11 11 12 12 12 11 11 10 9 9 8 9 9 10 11 11 10 10 9 9 10 9 8 6 5 5 5
11 9 7 6 3 4 6 4 5 5 7 8 6 3 2 5 8 6 5 5 5 4 3 3 3 1 1 1 1 2 2 1 2 3 4 4 5 5 6 5 4 5 6 8 8 8 9 11 11 10 9 9 11 11 13 16 18 12 11 11 12 11 12 12 12 12 11 11 10 10 10 10 10 10 9 9 10 9 9 9 8 7 4 4 4 4 5
12 11 10 8 7 7 7 6 6 8 9 8 9 7 3 2 4 5 6 6 6 4 3 2 2 2 1 1 1 1 2 2 2 3 4 4 5 5 5 3 5 6 8 10 9 8 11 16 11 8 8 9 10 10 11 16 17 13 12 12 11 12 12 12 12 12 11 10 11 13 11 11 10 10 8 7 9 10 9 7 6 5 4 5 4 4 5
12 12 11 10 10 6 3 7 7 10 9 9 10 9 7 4 5 5 5 7 6 4 3 3 3 2 1 1 1 2 2 2 3 3 3 3 4 5 5 5 5 6 8 8 9 9 10 9 8 8 8 10 10 13 12 16 14 12 12 12 12 12 12 12 12 12 11 12 11 10 11 10 10 10 8 8 8 8 8 6 5 3 2 3 4 4 4
12 12 13 12 11 5 4 2 6 5 4 7 8 9 8 8 6 6 6 6 5 4 4 3 3 1 1 0 1 2 2 3 3 3 3 3 3 2 4 5 6 6 11 11 10 10 8 8 9 9 10 11 11 17 20 15 12 11 11 11 11 11 11 12 12 11 11 10 10 10 10 9 9 8 7 7 7 6 5 5 3 2 2 3 3 3 4
12 12 10 8 10 6 6 6 4 8 13 11 9 8 8 8 7 7 6 6 5 4 3 4 4 3 1 1 1 2 3 2 2 3 3 3 5 5 3 4 5 6 11 8 9 7 7 7 8 8 15 15 14 21 20 12 10 10 10 10 10 10 10 9 10 10 10 10 10 11 11 9 7 5 4 5 5 5 4 4 4 3 3 3 3 4 6
11 10 8 7 6 10 7 7 8 8 9 9 10 9 9 7 7 6 6 6 5 5 4 3 2 1 1 1 2 2 2 2 2 3 3 3 1 4 5 4 5 7 10 8 7 7 7 8 9 15 19 20 21 22 13 9 9 9 10 10 9 9 10 10 9 9 9 10 10 9 7 6 5 4 4 5 5 5 4 3 2 3 3 2 2 3 5
9 7 5 5 8 11 5 6 7 7 7 10 10 10 9 8 8 7 7 6 5 4 4 3 2 2 2 3 1 1 2 3 3 2 3 3 4 4 5 4 5 7 8 10 6 7 7 8 13 18 17 20 21 19 10 9 9 9 9 10 10 9 9 9 10 9 9 8 8 8 7 6 5 5 4 4 5 5 5 4 3 2 2 2 3 4 5
8 7 3 2 7 4 5 7 7 7 10 11 11 9 9 8 8 7 6 6 6 5 4 4 3 3 2 1 1 2 2 3 3 2 3 3 2 3 3 3 5 7 9 7 6 6 7 13 16 16 18 19 19 11 9 10 10 9 9 9 9 10 8 6 7 7 7 7 7 6 6 5 5 4 4 4 4 4 4 3 3 2 2 2 3 3 3
6 3 3 4 2 3 6 8 10 5 7 9 10 9 8 9 8 6 6 6 5 5 4 4 4 3 2 2 2 2 2 3 3 3 3 3 3 3 4 4 5 7 8 6 6 7 7 10 12 16 17 17 16 10 9 9 9 9 9 9 8 8 8 8 7 6 7 8 8 8 7 7 5 4 4 4 4 3 3 3 2 2 2 2 2 2 1
4 3 4 4 7 8 7 7 7 7 10 9 8 7 9 8 7 7 7 5 5 5 4 4 3 2 2 2 3 3 3 2 3 4 4 4 4 3 3 3 4 7 8 7 7 7 11 14 14 15 16 15 10 10 10 9 9 9 9 8 8 8 8 8 7 7 6 7 7 7 6 6 5 4 3 3 3 3 3 3 2 1 1 1 1 1 1
4 1 3 6 7 9 6 5 9 8 8 8 9 8 8 8 8 7 7 6 6 5 4 4 3 2 2 2 2 2 2 2 2 3 3 3 3 3 4 4 5 6 6 6 7 6 9 12 14 14 14 12 9 9 9 9 9 10 9 9 8 8 8 8 8 8 8 8 7 7 5 5 5 4 4 3 3 3 3 4 4 4 3 2 2 2 1
3 1 3 5 7 7 7 5 6 5 6 7 8 7 8 7 7 6 5 5 4 4 4 4 3 3 3 2 1 1 2 1 1 2 1 1 3 3 3 4 4 4 5 5 6 6 7 11 11 12 10 8 7 8 8 9 9 9 9 10 9 7 8 9 10 11 9 8 7 7 7 6 5 5 5 4 4 3 3 2 2 4 6 4 3 2 1
6 6 6 6 7 6 5 5 3 3 5 7 7 6 6 5 5 6 5 4 4 2 2 3 2 1 2 3 2 1 1 1 2 0 2 1 2 2 2 3 4 4 5 6 6 6 6 6 7 7 8 7 6 7 7 8 8 9 9 9 10 8 8 9 8 7 8 8 7 6 6 6 7 6 5 5 5 4 4 4 3 3 3 3 3 3 4
8 7 6 5 4 4 5 5 3 2 1 4 5 5 5 4 5 5 5 2 2 3 3 3 3 3 3 1 1 1 2 3 2 1 1 2 3 4 2 1 2 3 3 5 5 5 5 6 6 6 7 7 6 5 6 9 8 7 9 9 8 9 10 9 9 8 7 8 8 7 8 7 6 7 7 6 6 6 6 5 5 5 6 6 5 5 5
Wind_Direction
238 294 326 331 306 317 294 213 214 200 238 255 254 247 267 58 314 137 175 164 153 159 140 127 125 124 122 119 116 100 102 101 92 86 82 83 81 81 81 76 73 76 76 72 74 87 93 77 52 26 35 39 130 79 47 32 45 72 39 42 341 252 259 260 251 264 345 31 342 332 331 327 313 291 251 217 212 202 178 191 203 212 222 219 187 192 198
290 266 249 250 289 1 352 68 82 355 324 262 256 256 253 255 100 129 154 176 143 145 140 142 133 120 104 96 102 107 99 90 86 87 82 78 75 71 72 73 74 73 78 77 72 69 73 77 67 35 33 38 24 24 41 39 51 59 73 78 218 325 119 298 324 330 98 107 94 22 2 30 17 0 346 331 283 231 235 210 194 196 208 228 217 185 190
270 255 271 291 260 298 297 215 149 337 279 302 287 292 314 228 189 164 154 144 108 41 209 142 120 113 114 100 81 82 98 114 102 90 85 76 69 66 66 70 70 67 62 69 72 67 65 66 68 59 36 12 33 58 28 31 42 47 58 50 63 89 70 56 56 61 105 125 145 159 177 114 105 50 339 350 344 322 292 241 233 195 205 215 228 226 193
259 243 222 248 273 290 282 274 222 221 236 243 248 246 263 298 185 154 142 126 133 140 237 132 129 128 119 111 110 82 59 58 86 102 96 87 77 64 60 58 57 60 61 54 58 60 58 61 62 67 52 35 36 32 37 21 37 48 51 60 54 56 48 43 38 32 44 92 96 52 354 2 59 99 163 167 210 244 298 282 230 227 224 219 227 241 238
247 254 221 247 244 249 250 244 250 213 236 261 253 232 242 284 275 190 171 144 201 153 169 138 132 127 123 125 123 109 95 67 43 66 87 85 81 82 69 55 54 53 50 50 51 56 53 52 54 54 64 59 50 47 52 57 23 36 42 45 54 62 57 51 42 26 14 21 44 95 75 71 143 154 282 298 245 212 252 309 325 280 228 220 223 227 241
247 232 200 287 268 238 246 270 244 218 224 214 236 213 171 61 326 64 132 124 167 157 169 148 142 140 130 126 113 117 120 107 95 53 49 64 69 71 73 72 60 51 48 44 42 47 49 42 49 50 39 54 50 46 52 59 63 53 45 46 48 50 51 43 41 49 22 19 13 10 3 10 10 143 177 192 296 312 304 305 297 305 312 274 239 224 230
245 160 156 186 232 240 35 30 11 47 198 220 241 261 152 160 252 122 144 154 152 154 142 143 131 115 121 129 145 135 134 130 118 109 59 54 67 68 70 63 61 59 51 41 39 45 47 37 31 38 39 38 42 43 50 51 48 51 42 42 41 42 44 44 38 34 33 37 16 359 351 348 338 302 258 240 226 233 262 263 250 269 289 321 318 308 281
291 235 170 219 228 66 71 75 58 24 28 30 80 104 64 60 101 117 150 153 148 146 103 104 127 132 130 122 101 97 111 36 110 120 96 51 57 57 55 73 62 47 43 40 25 39 59 49 31 32 34 33 40 31 35 55 52 49 47 42 38 39 37 28 37 44 37 15 2 353 346 339 340 331 283 256 250 236 237 250 268 260 241 239 249 254 265
244 245 208 196 96 194 133 155 158 178 227 164 224 220 166 193 84 160 141 153 143 133 127 133 130 123 153 122 121 140 137 97 43 80 91 67 48 63 54 55 68 52 33 20 20 15 57 50 35 32 39 33 40 29 23 37 49 50 49 44 38 32 27 18 16 41 117 92 310 338 345 335 329 332 330 298 263 242 240 251 258 254 252 237 224 221 226
241 257 225 204 171 238 199 176 132 246 116 5 344 279 248 176 189 142 155 186 144 162 156 157 158 153 181 173 164 133 122 155 154 134 97 89 63 48 45 51 60 46 30 4 4 11 26 36 17 6 63 41 48 32 12 15 46 54 52 41 29 23 17 4 8 354 13 143 164 222 295 322 323 317 316 322 308 272 262 270 267 273 282 276 274 268 264
248 247 263 243 236 81 19 102 85 62 60 61 67 214 236 144 140 136 165 184 176 180 183 175 149 171 210 201 120 137 134 106 70 71 64 42 42 38 32 40 40 28 14 351 345 4 15 26 357 352 36 39 35 27 12 7 28 33 39 35 25 17 10 353 2 350 359 5 309 305 307 313 315 308 310 309 296 296 286 271 271 278 284 283 284 279 268
256 264 241 250 35 143 116 104 109 90 87 99 196 209 216 134 168 154 200 189 199 189 177 318 123 308 217 124 94 60 60 75 84 57 43 29 20 20 6 43 24 5 342 332 360 358 6 19 340 350 15 26 26 23 11 3 12 14 22 24 17 12 2 349 348 352 344 3 347 330 312 305 306 291 286 286 284 287 283 280 280 281 276 278 285 283 265
229 234 256 263 131 99 140 134 118 131 126 140 205 219 90 148 127 148 209 246 238 172 129 104 170 95 79 101 94 161 55 25 43 20 10 14 12 6 7 24 358 345 347 4 359 342 12 349 347 0 14 8 6 4 360 358 4 1 4 9 3 7 350 344 342 344 348 344 334 318 313 302 293 295 292 286 289 281 286 292 303 303 310 309 294 291 311
252 236 238 239 78 84 115 130 148 96 207 195 196 102 133 77 88 73 72 98 62 66 87 103 48 163 128 88 89 83 54 27 30 6 10 6 1 1 9 357 346 3 359 7 352 351 351 346 4 3 356 4 354 355 346 347 347 342 1 355 353 348 340 328 337 337 338 325 318 320 317 309 282 284 280 288 291 285 261 251 257 272 275 285 285 280 280
243 245 266 259 223 154 241 114 109 74 275 80 109 127 96 95 90 84 74 85 86 93 98 94 57 46 54 52 50 35 17 1 6 19 27 17 12 3 349 350 8 10 4 355 353 350 351 356 355 349 344 347 346 339 335 339 339 340 345 345 341 333 318 322 326 330 314 320 318 324 313 302 295 290 291 287 276 277 282 271 274 276 260 271 271 263 271
257 230 239 324 32 140 141 182 227 125 69 122 118 122 124 142 134 111 103 89 106 99 66 124 103 67 66 79 71 51 40 15 353 22 29 13 1 352 356 1 9 4 356 353 349 345 347 352 349 348 346 339 331 333 332 354 339 340 336 334 324 317 317 317 338 321 316 315 324 315 306 302 302 288 283 275 274 271 260 253 253 246 224 225 246 265 278
324 348 40 170 208 146 158 166 95 109 124 132 123 98 136 129 119 111 139 126 122 112 93 82 68 139 358 9 45 2 17 328 20 23 9 3 5 355 6 360 12 358 349 337 333 332 339 343 347 349 345 343 343 341 350 339 339 326 320 315 318 321 327 331 320 313 309 312 309 307 303 304 294 283 277 270 265 263 268 269 257 247 199 201 246 286 284
278 259 267 75 162 162 167 136 119 127 124 119 135 132 135 151 72 160 145 139 161 149 158 170 172 198 352 100 261 282 347 355 360 13 13 20 9 360 357 0 359 342 331 330 331 333 337 339 343 341 340 337 336 343 339 337 329 333 332 336 333 330 322 314 312 310 310 310 304 290 298 296 288 278 267 256 247 235 264 293 295 313 5 330 302 294 282
288 257 188 209 183 158 203 165 143 139 142 145 160 146 226 154 146 150 113 103 125 139 144 173 184 150 173 237 213 110 322 287 352 5 23 14 9 1 351 350 342 341 339 334 336 335 334 338 334 331 330 331 329 335 329 333 328 334 334 323 314 306 304 305 306 304 296 295 297 303 292 285 281 278 301 334 330 321 290 288 312 43 85 2 327 308 309
241 260 74 337 16 187 203 216 155 175 167 155 176 120 171 141 159 135 142 146 172 141 178 159 183 210 221 248 350 291 293 353 7 10 8 7 348 351 344 335 348 335 335 332 331 331 329 330 329 329 328 326 324 325 327 321 326 327 320 320 314 311 306 303 296 293 289 291 291 286 286 291 299 305 313 303 301 321 4 5 355 342 333 320 295 291 290
242 262 267 223 222 272 269 257 239 189 193 191 177 174 149 148 155 159 134 193 179 181 191 146 166 196 17 332 335 304 352 358 353 353 350 340 337 337 340 345 335 335 333 329 328 326 325 328 325 324 323 321 322 321 319 323 323 321 314 312 311 306 304 298 297 298 296 294 291 293 296 296 293 316 309 306 318 329 313 327 310 302 298 284 282 286 288
247 347 19 355 292 248 250 265 249 244 200 182 196 179 191 188 178 168 181 168 236 192 132 143 151 193 146 176 42 329 337 330 335 335 332 335 334 335 335 334 334 332 328 328 323 321 318 318 319 318 319 315 314 314 315 315 315 310 312 309 307 305 305 302 298 298 295 294 295 302 301 300 304 306 322 331 306 291 288 271 256 236 225 251 264 281 281
259 32 327 16 345 295 306 22 317 272 265 248 221 203 215 184 186 179 172 187 187 179 164 114 41 152 163 194 7 293 278 318 335 330 333 331 331 330 334 326 325 328 326 322 317 315 321 323 320 317 314 315 312 311 307 304 301 300 302 305 304 304 301 297 297 300 302 298 297 297 295 294 295 296 289 275 255 246 240 245 244 244 241 242 251 252 239
267 279 4 351 307 289 292 306 312 316 311 291 277 260 254 230 206 179 185 196 216 200 208 208 207 187 149 145 255 250 314 326 331 325 321 327 329 324 318 318 317 318 317 319 321 321 318 316 316 320 317 317 319 316 316 315 311 304 299 295 293 291 294 295 299 295 289 289 292 290 288 285 286 283 283 292 288 239 237 240 245 247 247 245 244 243 247
279 310 309 300 281 293 301 291 282 259 270 282 270 257 250 249 242 226 199 182 193 218 222 235 310 351 223 221 183 206 237 259 270 301 338 328 315 306 308 312 317 322 325 325 323 323 322 321 319 317 316 314 314 312 309 306 303 297 294 294 292 290 287 288 288 291 291 292 291 290 288 288 284 287 293 298 298 302 285 238 233 235 238 237 238 245 246
283 280 284 287 284 279 283 277 262 261 258 266 272 264 261 255 255 241 208 178 180 184 199 230 265 338 267 132 97 248 264 277 310 323 309 299 297 305 305 315 320 320 323 323 322 317 316 316 316 313 310 312 310 309 307 305 302 301 300 294 295 300 301 299 300 293 286 277 279 283 287 283 278 280 282 281 284 290 295 298 289 277 251 243 247 251 254
267 270 275 280 277 277 264 259 269 264 261 253 241 274 296 275 248 243 240 189 178 177 186 181 232 217 152 144 157 285 284 293 282 275 285 290 300 305 314 316 318 319 317 314 314 313 311 310 308 311 314 316 316 312 305 300 297 293 294 298 295 287 286 286 283 288 289 285 278 273 273 271 274 281 284 284 282 284 289 295 298 293 298 281 243 228 242
294 303 294 283 286 288 294 291 298 334 326 311 288 238 231 245 244 225 219 214 195 187 180 211 224 246 274 284 220 227 237 234 242 294 289 294 306 320 319 323 319 311 308 309 309 312 312 312 315 317 318 318 313 306 300 298 296 297 298 292 288 288 291 287 281 275 277 280 285 284 279 273 271 271 276 281 283 284 286 289 290 294 295 285 291 270 226
288 285 287 282 278 283 291 284 288 275 259 270 282 270 258 251 249 237 218 206 175 171 191 199 220 224 235 216 172 215 230 260 296 293 320 330 319 312 311 309 310 305 307 308 307 307 313 317 317 316 318 319 319 315 305 297 295 292 291 295 296 294 287 288 291 288 284 281 276 276 279 283 281 274 270 274 278 281 282 284 285 288 285 290 290 284 269
311 313 300 279 269 272 274 274 267 267 268 260 259 259 252 248 242 232 225 209 203 204 202 221 225 175 181 218 235 18 30 360 320 327 314 308 306 305 304 307 306 309 302 300 308 313 313 312 311 311 316 322 323 321 320 313 300 291 286 285 287 288 289 290 292 293 294 298 298 304 303 297 280 263 261 262 265 270 273 274 272 275 278 278 277 283 289
277 255 260 272 278 276 279 286 286 279 265 255 261 283 283 262 261 246 221 205 197 202 209 216 218 210 140 43 46 49 39 29 349 323 307 302 300 310 311 317 317 308 308 311 316 310 307 307 311 313 321 323 321 321 318 314 306 296 288 285 281 275 272 274 274 276 280 283 284 284 281 279 283 292 289 283 278 275 275 280 282 284 289 287 282 279 285
296 294 289 279 274 280 282 276 273 273 270 259 249 244 250 255 246 259 245 170 205 205 207 227 242 208 133 76 50 41 29 1 317 290 296 293 295 300 308 312 314 317 313 310 308 306 306 310 313 317 326 325 321 321 319 316 314 311 303 294 287 284 278 272 276 275 274 277 275 272 270 271 273 274 277 275 279 286 288 288 285 281 277 277 283 293 344
298 297 291 300 302 296 290 290 291 287 284 270 257 249 270 317 292 241 216 211 172 30 311 285 172 111 83 70 52 357 315 282 279 287 285 301 305 313 318 318 320 314 310 309 306 300 303 311 312 324 323 320 320 318 314 310 308 304 305 309 314 309 305 295 291 289 283 280 276 273 272 271 272 269 269 277 279 278 274 272 269 268 266 273 278 296 88
307 301 302 304 302 300 300 300 287 266 273 262 238 241 154 179 175 136 49 59 80 213 241 236 76 81 84 76 68 332 323 306 292 298 320 323 324 323 323 324 315 307 302 303 302 306 310 315 324 325 318 316 316 315 312 307 308 311 315 317 311 308 304 305 301 292 284 280 277 283 282 277 268 267 272 271 271 269 272 277 283 287 285 285 288 302 125
304 308 308 308 311 313 303 289 290 290 266 255 223 170 145 109 97 95 81 105 157 90 83 80 70 82 87 76 41 306 317 328 320 309 320 326 329 328 326 312 305 304 304 303 306 308 325 336 331 324 319 314 310 306 306 308 315 316 315 312 309 307 304 298 296 294 296 292 286 281 281 283 282 284 279 277 272 270 268 266 268 273 280 284 285 292 277
315 335 325 339 338 324 314 312 306 289 274 251 227 166 134 111 104 96 68 352 23 33 42 72 73 76 64 48 305 285 298 301 332 340 333 327 322 315 308 304 306 304 306 311 325 344 340 330 322 318 316 311 307 305 307 310 311 311 311 310 308 304 298 295 295 294 292 291 289 286 281 280 277 275 274 273 275 277 280 283 283 282 284 288 292 296 306
317 325 313 318 319 319 326 352 339 194 134 135 126 125 147 162 174 155 144 170 155 157 132 61 58 62 78 283 291 294 299 312 324 338 347 330 310 308 308 309 307 316 326 324 340 340 334 333 323 319 316 308 304 302 305 311 314 314 312 308 304 302 301 300 299 296 294 290 285 281 281 283 278 275 269 269 271 272 272 274 280 285 284 285 285 295 320
304 300 299 298 316 314 291 264 111 124 137 137 135 142 172 164 159 149 160 149 150 127 118 120 98 106 151 198 267 288 309 330 346 334 324 315 317 310 307 309 318 334 333 337 345 338 334 327 324 321 313 306 304 309 313 317 319 317 314 312 308 305 301 298 296 293 291 289 289 287 286 286 281 280 280 278 275 276 278 284 289 292 300 315 323 331 335
292 294 288 284 247 225 240 203 156 134 139 133 123 108 101 148 143 139 137 122 100 115 119 124 115 118 173 269 311 323 317 323 310 305 309 312 316 318 316 319 3 1 345 350 344 341 331 325 323 319 315 315 318 320 322 321 319 316 312 309 308 303 301 298 296 293 293 292 291 288 286 283 285 286 283 287 286 285 287 291 292 287 292 309 326 326 320
299 294 289 283 271 248 227 210 178 151 143 142 137 133 118 174 121 136 140 131 117 125 126 127 153 191 197 182 255 290 313 304 305 306 307 322 323 318 311 326 19 349 5 357 344 333 327 327 325 323 320 319 324 323 321 318 316 311 306 302 299 297 293 292 291 290 291 292 289 287 284 284 284 285 284 282 278 281 286 288 289 281 280 284 285 289 293
290 284 284 279 270 255 257 262 209 173 161 159 150 143 147 135 125 147 151 134 126 133 138 156 168 187 165 354 341 310 303 311 312 306 320 338 338 330 325 329 354 353 3 346 335 333 333 330 328 326 328 328 326 321 319 316 314 306 301 297 293 290 290 288 286 288 287 285 283 283 285 288 289 289 289 287 287 288 283 288 299 305 313 310 304 311 304
286 290 288 282 273 256 158 174 244 217 156 143 157 147 141 139 145 131 110 108 128 133 151 130 98 51 36 356 278 306 320 330 337 339 343 348 16 9 330 336 357 358 355 345 341 339 335 335 336 336 335 329 325 325 322 317 309 302 297 297 296 295 292 292 291 291 289 287 286 286 286 284 284 283 288 292 296 298 299 292 291 317 336 334 333 322 298
285 280 278 291 296 254 186 194 213 195 168 161 153 137 128 134 130 124 127 128 134 137 146 139 146 167 199 247 335 350 347 337 348 351 348 357 95 100 18 350 355 352 354 348 344 339 339 344 344 345 334 334 330 328 326 318 309 307 305 307 306 303 298 298 299 301 302 299 293 289 287 284 282 281 296 305 310 317 322 321 320 328 342 333 318 294 280
294 286 288 282 268 261 218 168 166 219 142 139 141 139 135 139 137 139 136 137 143 145 148 151 140 111 64 42 33 8 17 17 11 7 347 334 1 94 71 12 359 355 1 353 344 340 346 346 343 339 338 338 336 335 332 326 325 322 320 317 313 311 307 302 300 298 298 302 307 305 302 310 324 332 333 327 324 318 311 305 314 332 336 335 320 300 291
291 285 278 305 285 255 213 157 158 222 145 141 139 141 137 140 140 142 137 145 136 131 129 117 103 78 71 70 42 35 26 70 89 36 348 352 337 360 36 351 5 6 357 349 342 348 349 343 342 343 342 342 342 343 342 337 332 328 325 324 319 315 315 317 317 318 319 318 318 317 318 319 322 328 337 336 333 325 323 326 325 339 333 310 288 279 277
296 276 278 270 262 220 165 149 136 186 158 142 133 135 132 138 142 140 143 142 142 140 131 122 101 99 95 83 3 55 45 53 65 66 71 44 15 358 19 343 359 1 354 350 347 353 352 347 344 348 347 347 349 349 346 343 336 333 330 328 327 326 322 323 326 325 323 319 315 317 324 329 331 331 333 325 321 330 338 351 346 346 340 323 309 301 301
262 249 125 222 205 116 110 119 133 160 125 126 135 137 143 145 141 137 132 133 137 136 137 132 135 138 113 65 39 37 27 26 64 64 29 39 32 7 12 7 12 358 351 349 357 356 3 348 348 350 351 351 355 354 349 342 338 334 335 334 332 331 331 335 329 322 328 323 320 318 315 311 307 320 323 317 312 310 307 309 299 283 286 296 302 327 330
18 319 70 141 120 94 82 116 161 175 148 139 131 146 147 145 132 127 136 144 144 148 142 140 129 131 138 136 122 91 66 17 359 48 36 17 20 359 14 5 343 345 350 340 357 7 12 356 353 353 354 357 357 354 351 346 342 338 341 344 338 334 339 337 332 327 324 320 324 322 323 327 322 303 305 319 329 339 360 359 343 27 67 28 4 335 330
307 357 108 114 130 131 139 206 162 147 135 140 143 140 135 136 141 148 147 149 150 152 147 132 131 135 111 50 24 40 80 90 43 30 27 12 349 340 350 360 15 12 350 349 356 350 8 3 358 1 1 3 360 359 355 351 344 345 352 350 346 344 340 338 335 336 333 330 329 333 338 340 346 354 360 9 24 29 35 40 34 23 13 35 38 28 21
35 83 138 119 127 124 147 148 118 127 135 130 126 132 140 149 146 137 146 141 143 140 147 144 135 133 137 128 91 104 117 50 36 82 33 31 339 341 352 1 6 10 9 355 354 358 8 5 4 6 5 5 359 360 360 358 355 356 356 359 356 347 349 352 352 353 346 345 340 340 349 353 355 8 17 22 32 43 47 53 57 54 52 53 42 33 12
59 74 94 97 105 128 105 80 88 112 131 127 136 147 160 162 139 147 149 131 136 116 91 97 96 88 91 129 166 160 134 110 104 74 279 314 355 36 41 354 6 2 1 360 12 3 356 358 1 357 358 5 10 8 0 7 8 4 5 5 5 357 357 3 2 358 357 354 353 352 3 1 359 10 24 26 34 40 38 39 48 64 62 56 57 48 45
64 62 43 32 28 65 98 107 75 43 59 142 150 158 162 150 120 103 84 26 90 110 109 120 125 111 84 50 3 17 39 15 356 345 5 8 348 336 6 337 350 22 19 10 14 8 360 359 9 3 4 5 10 13 16 17 19 12 12 8 10 8 10 15 16 15 5 2 0 360 1 11 15 11 10 12 24 32 34 34 33 35 40 33 25 33 46